Location: Montclair
(37.8322°N, 122.2092°W)
Time: 06:22:33
(UTC+00:00)

Cosmos 1606 Rocket - Pass Details

Date: 05 December 2024
Orbit: 599 x 625 km, 82.5° (Epoch: 18 January)

Event Time Altitude Azimuth Distance (km) Brightness Sun altitude
Exits shadow 12:50:49 15° 181° (S) 1,689 5.8 -26.8°
Drops below altitude 10° 12:51:31 10° 180° (S) 1,969 6.2 -26.6°
Sets 12:53:45 0° 179° (S) 2,874 7.1 -26.2°
